AUA2860 EPKK-LOWW

Flight info

Callsign AUA2860
Flight time 0h 33m
Altitude 24000
Route BABKO DCT VADEX DCT BABNI DCT TUTPI P182 REKLU REKLU3W
Aircraft A320/M-SDE3FGHIRWY/LB1

Departure

Time 2026-05-07 16:01
Airport Kraków John Paul II International Airport (EPKK)

Arrival

Time 2026-05-07 16:34
Airport Vienna International Airport (LOWW)
Time Latitude Longitude Altitude Speed Heading
2026-05-07 16:01 49.82628 19.65335 12575 ft 340 kts 209°
2026-05-07 16:01 49.80547 19.63547 13312 ft 344 kts 209°
2026-05-07 16:01 49.78447 19.61744 14022 ft 347 kts 208°
2026-05-07 16:02 49.76327 19.59923 14703 ft 349 kts 208°
2026-05-07 16:02 49.74194 19.58091 15404 ft 351 kts 208°
2026-05-07 16:02 49.72049 19.56250 16057 ft 354 kts 208°
2026-05-07 16:02 49.69888 19.54398 16744 ft 356 kts 208°
2026-05-07 16:03 49.67718 19.52542 17407 ft 358 kts 208°
2026-05-07 16:03 49.65533 19.50678 18053 ft 361 kts 208°
2026-05-07 16:03 49.63327 19.48800 18609 ft 363 kts 208°
2026-05-07 16:03 49.61195 19.46686 19119 ft 367 kts 217°
2026-05-07 16:04 49.59332 19.43981 19666 ft 370 kts 224°
2026-05-07 16:04 49.57567 19.41080 20199 ft 372 kts 224°
2026-05-07 16:04 49.55797 19.38167 20745 ft 374 kts 224°
2026-05-07 16:04 49.54036 19.35277 21270 ft 376 kts 225°
2026-05-07 16:05 49.52215 19.32302 21773 ft 378 kts 224°
2026-05-07 16:05 49.50407 19.29354 22300 ft 380 kts 224°
2026-05-07 16:05 49.48588 19.26395 22818 ft 381 kts 224°
2026-05-07 16:05 49.46783 19.23469 23300 ft 384 kts 224°
2026-05-07 16:06 49.44939 19.20490 23757 ft 385 kts 224°
2026-05-07 16:06 49.43092 19.17508 23951 ft 386 kts 224°
2026-05-07 16:06 49.41232 19.14507 23986 ft 388 kts 224°
2026-05-07 16:06 49.39374 19.11506 23995 ft 389 kts 224°
2026-05-07 16:07 49.37509 19.08487 23992 ft 389 kts 224°
2026-05-07 16:07 49.35823 19.05759 23994 ft 389 kts 224°
2026-05-07 16:07 49.34033 19.02867 23993 ft 389 kts 224°
2026-05-07 16:07 49.32196 18.99905 23997 ft 389 kts 224°
2026-05-07 16:08 49.30332 18.96906 23986 ft 389 kts 224°
2026-05-07 16:08 49.28461 18.93900 23991 ft 391 kts 224°
2026-05-07 16:08 49.26582 18.90884 23987 ft 391 kts 224°
2026-05-07 16:08 49.24780 18.87766 23985 ft 393 kts 230°
2026-05-07 16:09 49.23220 18.84329 23984 ft 393 kts 232°
2026-05-07 16:09 49.21673 18.80873 23983 ft 393 kts 232°
2026-05-07 16:09 49.20121 18.77415 23981 ft 393 kts 232°
2026-05-07 16:09 49.18570 18.73967 23980 ft 393 kts 232°
2026-05-07 16:10 49.17038 18.70569 23971 ft 393 kts 232°
2026-05-07 16:10 49.15486 18.67134 23972 ft 393 kts 232°
2026-05-07 16:10 49.13932 18.63699 23970 ft 393 kts 232°
2026-05-07 16:10 49.12378 18.60265 23971 ft 393 kts 232°
2026-05-07 16:11 49.10821 18.56822 23975 ft 393 kts 232°
2026-05-07 16:11 49.09269 18.53388 23969 ft 393 kts 232°
2026-05-07 16:11 49.07712 18.49950 23964 ft 393 kts 232°
2026-05-07 16:11 49.06155 18.46525 23957 ft 393 kts 232°
2026-05-07 16:12 49.04595 18.43098 23959 ft 394 kts 232°
2026-05-07 16:12 49.03030 18.39666 23954 ft 394 kts 232°
2026-05-07 16:12 49.01485 18.36282 23958 ft 394 kts 232°
2026-05-07 16:12 48.99900 18.32815 23953 ft 394 kts 232°
2026-05-07 16:13 48.98359 18.29447 23989 ft 392 kts 231°
2026-05-07 16:13 48.96827 18.26017 23990 ft 393 kts 235°
2026-05-07 16:13 48.95603 18.22286 23990 ft 396 kts 242°
2026-05-07 16:13 48.94521 18.18434 23991 ft 395 kts 242°
2026-05-07 16:14 48.93438 18.14590 23983 ft 395 kts 242°
2026-05-07 16:14 48.92356 18.10762 23988 ft 394 kts 242°
2026-05-07 16:14 48.91271 18.06933 23986 ft 394 kts 242°
2026-05-07 16:14 48.90188 18.03115 23975 ft 393 kts 242°
2026-05-07 16:15 48.89102 17.99300 23981 ft 393 kts 242°
2026-05-07 16:15 48.88015 17.95494 23965 ft 393 kts 242°
2026-05-07 16:15 48.86924 17.91692 23970 ft 392 kts 242°
2026-05-07 16:15 48.85834 17.87897 23957 ft 392 kts 242°
2026-05-07 16:16 48.84746 17.84103 23954 ft 392 kts 242°
2026-05-07 16:16 48.83658 17.80308 23948 ft 392 kts 242°
2026-05-07 16:16 48.82571 17.76514 23945 ft 392 kts 242°
2026-05-07 16:16 48.81480 17.72725 23977 ft 392 kts 242°
2026-05-07 16:17 48.80386 17.68937 23969 ft 392 kts 242°
2026-05-07 16:17 48.79292 17.65151 23965 ft 392 kts 242°
2026-05-07 16:17 48.78203 17.61377 23959 ft 391 kts 242°
2026-05-07 16:17 48.77110 17.57594 23952 ft 391 kts 242°
2026-05-07 16:18 48.76018 17.53825 23951 ft 391 kts 242°
2026-05-07 16:18 48.74920 17.50052 23949 ft 391 kts 242°
2026-05-07 16:18 48.73822 17.46286 23944 ft 391 kts 242°
2026-05-07 16:18 48.72730 17.42514 23948 ft 391 kts 244°
2026-05-07 16:19 48.71921 17.38554 23638 ft 397 kts 253°
2026-05-07 16:19 48.71621 17.34334 22546 ft 411 kts 265°
2026-05-07 16:19 48.71726 17.29995 21827 ft 408 kts 265°
2026-05-07 16:19 48.71481 17.25792 21294 ft 395 kts 254°
2026-05-07 16:20 48.70702 17.21879 20795 ft 383 kts 244°
2026-05-07 16:20 48.69476 17.18369 20327 ft 373 kts 234°
2026-05-07 16:20 48.68055 17.15134 19860 ft 367 kts 234°
2026-05-07 16:20 48.66661 17.11939 19385 ft 362 kts 235°
2026-05-07 16:21 48.65288 17.08779 18922 ft 357 kts 235°
2026-05-07 16:21 48.63932 17.05659 18455 ft 353 kts 235°
2026-05-07 16:21 48.62583 17.02568 17943 ft 350 kts 235°
2026-05-07 16:21 48.61250 16.99509 17458 ft 347 kts 236°
2026-05-07 16:22 48.59963 16.96458 16981 ft 343 kts 240°
2026-05-07 16:22 48.59021 16.93154 16506 ft 342 kts 251°
2026-05-07 16:22 48.58534 16.89638 15950 ft 344 kts 262°
2026-05-07 16:22 48.58353 16.86028 15400 ft 345 kts 264°
2026-05-07 16:23 48.58172 16.82464 14852 ft 345 kts 264°
2026-05-07 16:23 48.57963 16.78810 14290 ft 345 kts 261°
2026-05-07 16:23 48.57256 16.75427 13740 ft 344 kts 242°
2026-05-07 16:23 48.55762 16.72618 13128 ft 345 kts 221°
2026-05-07 16:24 48.53690 16.70821 12584 ft 346 kts 200°
2026-05-07 16:24 48.51315 16.70290 12020 ft 348 kts 179°
2026-05-07 16:24 48.48914 16.70719 11463 ft 347 kts 174°
2026-05-07 16:24 48.46530 16.71211 10894 ft 346 kts 174°
2026-05-07 16:25 48.44158 16.71705 10517 ft 339 kts 174°
2026-05-07 16:25 48.41866 16.72179 10391 ft 325 kts 174°
2026-05-07 16:25 48.39667 16.72626 10267 ft 313 kts 174°
2026-05-07 16:25 48.37547 16.73050 10161 ft 301 kts 175°
2026-05-07 16:26 48.35501 16.73458 9958 ft 294 kts 175°
2026-05-07 16:26 48.33492 16.73859 9701 ft 290 kts 174°
2026-05-07 16:26 48.31474 16.74260 9243 ft 292 kts 173°
2026-05-07 16:26 48.30147 16.74526 9034 ft 289 kts 173°
2026-05-07 16:27 48.27501 16.75055 8257 ft 285 kts 173°
2026-05-07 16:27 48.25552 16.75445 7589 ft 283 kts 173°
2026-05-07 16:27 48.23613 16.75834 6953 ft 280 kts 173°
2026-05-07 16:27 48.21695 16.76220 6317 ft 277 kts 173°
2026-05-07 16:28 48.19796 16.76606 5679 ft 273 kts 173°
2026-05-07 16:28 48.17921 16.76986 5031 ft 270 kts 172°
2026-05-07 16:28 48.16075 16.77357 4479 ft 265 kts 172°
2026-05-07 16:28 48.14330 16.77707 4363 ft 241 kts 172°
2026-05-07 16:29 48.12729 16.78026 4319 ft 227 kts 172°
2026-05-07 16:29 48.11167 16.78335 4248 ft 226 kts 172°
2026-05-07 16:29 48.09655 16.78632 4160 ft 217 kts 173°
2026-05-07 16:29 48.08164 16.78923 4049 ft 209 kts 173°
2026-05-07 16:30 48.06774 16.78738 3963 ft 194 kts 202°
2026-05-07 16:30 48.05784 16.77617 3870 ft 173 kts 233°
2026-05-07 16:30 48.05331 16.76074 3697 ft 157 kts 259°
2026-05-07 16:30 48.05397 16.74460 3272 ft 157 kts 287°
2026-05-07 16:31 48.05851 16.72999 2942 ft 152 kts 295°
2026-05-07 16:31 48.06310 16.71602 2726 ft 148 kts 295°
2026-05-07 16:31 48.06759 16.70233 2516 ft 146 kts 295°
2026-05-07 16:31 48.07204 16.68876 2317 ft 145 kts 296°
2026-05-07 16:32 48.07646 16.67523 2124 ft 144 kts 296°
2026-05-07 16:32 48.08087 16.66178 1934 ft 144 kts 297°
2026-05-07 16:32 48.08526 16.64841 1737 ft 143 kts 297°
2026-05-07 16:32 48.08962 16.63510 1534 ft 142 kts 296°
2026-05-07 16:33 48.09392 16.62193 1345 ft 140 kts 294°
2026-05-07 16:33 48.09815 16.60897 1146 ft 138 kts 294°
2026-05-07 16:33 48.10234 16.59614 947 ft 136 kts 293°
2026-05-07 16:33 48.10644 16.58358 758 ft 133 kts 292°
2026-05-07 16:34 48.11044 16.57125 633 ft 126 kts 294°
2026-05-07 16:34 48.11320 16.56276 622 ft 62 kts 295°
2026-05-07 16:34 48.11468 16.55832 625 ft 34 kts 295°
2026-05-07 16:34 48.11561 16.55537 621 ft 31 kts 295°
2026-05-07 16:35 48.11670 16.55302 618 ft 10 kts 327°
2026-05-07 16:35 48.11724 16.55249 616 ft 11 kts 322°
2026-05-07 16:35 48.11810 16.55152 608 ft 20 kts 340°
2026-05-07 16:35 48.11932 16.55197 619 ft 18 kts 33°
2026-05-07 16:36 48.11985 16.55330 603 ft 15 kts 42°
2026-05-07 16:36 48.12043 16.55439 600 ft 14 kts 75°
2026-05-07 16:36 48.12031 16.55580 599 ft 13 kts 114°
2026-05-07 16:36 48.12021 16.55608 599 ft 0 kts 117°